HST 1 20580U 90037B 26036.89949414 .00009561 00000+0 32208-3 0 9997 2 20580 28.4665 256.7833 0001910 115.5134 244.5659 15.28971962768447 POLAR 1 23802U 96013A 26036.32908377 .00000220 00000+0 00000+0 0 9992 2 23802 79.7029 228.5515 6336729 213.5400 82.2335 1.29845953143142 SWAS 1 25560U 98071A 26037.57263164 .00004838 00000+0 31557-3 0 9991 2 25560 69.8948 204.0964 0002743 106.2015 253.9450 15.08551965477562 CXO 1 25867U 99040B 26039.80248350 .00000763 00000+0 00000+0 0 9994 2 25867 54.0420 120.5771 8039148 310.7993 0.8658 0.37804264 16832 XMM-NEWTON 1 25989U 99066A 26037.70800051 .00000058 00000+0 00000+0 0 9993 2 25989 65.1412 284.7039 4721797 67.1949 359.9288 0.50133004 22352 TERRA 1 25994U 99068A 26037.63312403 .00000641 00000+0 13980-3 0 9995 2 25994 97.9659 92.2438 0000946 288.0396 191.6055 14.60980630390544 CLUSTER II-FM7 (SAMBA) 1 26410U 00041A 26023.07807862 .00004677 00000+0 00000+0 0 9991 2 26410 148.3592 29.7174 8835954 245.6118 359.2301 0.44786329 19664 CLUSTER II-FM8 (TANGO) 1 26464U 00045B 26019.78457485 .00005071 00000+0 00000+0 0 9998 2 26464 148.5838 29.9991 8833034 245.7591 359.3805 0.44425532 19644 ODIN 1 26702U 01007A 26037.62351443 .00044821 00000+0 64939-3 0 9993 2 26702 97.4135 72.4547 0001426 269.0884 91.0207 15.55745896369009 TIMED 1 26998U 01055B 26037.59538934 .00002576 00000+0 23952-3 0 9992 2 26998 74.0693 137.8989 0002184 310.8178 49.2817 14.94920385311307 CORIOLIS 1 27640U 03001A 26037.62370693 .00000192 00000+0 11085-3 0 9996 2 27640 98.7155 46.4898 0013228 226.0467 133.9619 14.19899891195699 SORCE 1 27651U 03004A 26037.13677183 .00005307 00000+0 39889-3 0 9996 2 27651 39.9905 288.9160 0017116 195.3013 164.7264 15.02829856252173 MOST 1 27843U 03031D 26037.62398047 .00000127 00000+0 78421-4 0 9993 2 27843 98.7078 47.1559 0008763 269.6001 90.4172 14.21290382172166 SCISAT 1 1 27858U 03036A 26037.54826764 .00001029 00000+0 13663-3 0 9995 2 27858 73.9287 70.8744 0006956 177.1340 182.9877 14.81250339212101 SWIFT 1 28485U 04047A 26037.35996732 .00069774 00000+0 93363-3 0 9993 2 28485 20.5538 105.0963 0002262 295.9659 64.0552 15.56288205166370 HINODE (SOLAR-B) 1 29479U 06041A 26037.63599937 .00001020 00000+0 18436-3 0 9998 2 29479 98.0635 55.6748 0017143 346.6793 13.3957 14.68420370 35712 SHIJIAN-6 02A (SJ-6 02A) 1 29505U 06046A 26037.61197381 .00009927 00000+0 53136-3 0 9998 2 29505 97.6546 77.7302 0002196 202.8860 157.2275 15.15239391 52487 SHIJIAN-6 02B (SJ-6 02B) 1 29506U 06046B 26037.63090870 .00002858 00000+0 22922-3 0 9991 2 29506 97.6996 67.6341 0013542 140.5458 219.6754 15.00838087 51155 FGRST (GLAST) 1 33053U 08029A 26037.30355357 .00005418 00000+0 20938-3 0 9994 2 33053 25.5835 32.7243 0008148 220.3134 139.6800 15.23075190975855 SDO 1 36395U 10005A 26033.15753127 -.00000091 00000+0 00000+0 0 9996 2 36395 34.3665 88.3951 0000722 125.3144 233.1380 1.00276361 58706 CRYOSAT 2 1 36508U 10013A 26037.61593341 .00000214 00000+0 52470-4 0 9995 2 36508 92.0222 245.6840 0002504 82.6715 277.4777 14.51903929839138 X-SAT 1 37389U 11015C 26037.57122248 .00000319 00000+0 15342-3 0 9997 2 37389 98.3382 20.9148 0014414 11.3704 348.7800 14.25158679769076 GCOM-W1 (SHIZUKU) 1 38337U 12025A 26037.30496334 .00000937 00000+0 21787-3 0 9990 2 38337 98.2274 339.8073 0001402 80.3947 80.7843 14.57135106729976 NUSTAR 1 38358U 12031A 26037.66670139 .00006573 00000+0 36814-3 0 9995 2 38358 6.0265 292.1437 0009195 322.4778 210.4095 15.07268903 1309 NEOSSAT 1 39089U 13009D 26036.98745792 .00000287 00000+0 11392-3 0 9995 2 39089 98.4107 220.1590 0009879 278.4674 81.5392 14.35767598677913 BRITE-AUSTRIA 1 39091U 13009F 26036.98138899 .00000332 00000+0 12764-3 0 9997 2 39091 98.3921 219.6871 0009066 272.2473 87.7675 14.36476577678212 IRIS 1 39197U 13033A 26037.57699640 .00002235 00000+0 26367-3 0 9991 2 39197 97.9393 237.2106 0025183 28.8576 331.4025 14.85540441680982 HISAKI (SPRINT-A) 1 39253U 13049A 26037.32795632 .00000110 00000+0 63976-4 0 9990 2 39253 29.7181 165.2985 0136812 35.8391 325.1273 13.55527625613653 CASSIOPE 1 39265U 13055A 26037.56179230 .00048487 -40724-6 60388-3 0 9993 2 39265 80.9162 224.2891 0325144 139.9188 222.6532 15.16100236647812 STSAT-3 1 39422U 13066G 26037.56713966 .00004724 00000+0 36549-3 0 9993 2 39422 97.6083 9.8006 0014531 111.7604 248.5169 15.01864253664592 SWARM B 1 39451U 13067A 26037.55484361 .00006031 00000+0 22279-3 0 9997 2 39451 87.7448 21.9246 0003026 100.2166 259.9424 15.27543080663299 SWARM A 1 39452U 13067B 26037.63601228 .00012938 00000+0 24674-3 0 9994 2 39452 87.3330 104.6534 0002886 93.5503 266.6087 15.48018761686030 SWARM C 1 39453U 13067C 26037.63591065 .00013048 00000+0 24883-3 0 9997 2 39453 87.3327 103.2364 0002887 92.8961 267.2629 15.48020542685997 BRITE-CA1 (TORONTO) 1 40020U 14033L 26037.30110999 .00001359 00000+0 21269-3 0 9997 2 40020 97.9525 168.8284 0078478 336.8296 22.9380 14.72378539622950 OCO 2 1 40059U 14035A 26037.61481478 .00000831 00000+0 19444-3 0 9994 2 40059 98.2278 340.8576 0001504 72.7804 287.3559 14.57139029617034 BRITE-PL2 (HEWELIUSZ) 1 40119U 14049B 26036.86154347 .00004246 00000+0 40301-3 0 9994 2 40119 97.8983 148.0146 0014137 179.6888 180.4343 14.94007685621835 MMS 1 1 40482U 15011A 26037.66670139 -.00001884 00000+0 00000+0 0 9992 2 40482 70.4030 350.6020 8453504 164.6125 306.0025 0.28242701 1399 MMS 2 1 40483U 15011B 26037.66670139 -.00001883 00000+0 00000+0 0 9992 2 40483 70.3998 350.5929 8454782 164.6326 305.9460 0.28254361 1397 MMS 3 1 40484U 15011C 26037.66670139 -.00001883 00000+0 00000+0 0 9993 2 40484 70.4058 350.6090 8454655 164.6283 305.9424 0.28254362 1398 MMS 4 1 40485U 15011D 26037.66670139 -.00001884 00000+0 00000+0 0 9995 2 40485 70.4067 350.6005 8455932 164.6147 305.9765 0.28254271 1390 ASTROSAT 1 40930U 15052A 26036.96355559 .00002602 00000+0 23648-3 0 9998 2 40930 5.9980 19.7172 0008407 317.7949 42.1532 14.82202000560327 DAMPE 1 41173U 15078A 26037.61276497 .00001904 00000+0 67324-4 0 9996 2 41173 97.4567 42.4668 0012104 171.3676 188.7775 15.30382680564571 PISAT 1 41784U 16059B 26037.55481051 .00001721 00000+0 30210-3 0 9991 2 41784 97.8179 43.6524 0027681 262.6837 97.1222 14.68690348500567 HXMT (HUIYAN) 1 42758U 17034A 26037.63917065 .00008827 00000+0 44406-3 0 9991 2 42758 43.0134 189.2453 0031064 36.2529 324.0416 15.17052319477828 FLYING LAPTOP 1 42831U 17042G 26037.63349125 .00003968 00000+0 32028-3 0 9996 2 42831 97.4221 198.7074 0015592 202.6497 157.4041 15.00300518466879 ZHANGHENG 1-01 (CSES-1) 1 43194U 18015C 26037.59863756 .00016424 00000+0 73720-3 0 9991 2 43194 97.6706 200.7637 0016079 10.7696 349.3880 15.21146678444799 SALSAT 1 46495U 20068K 26037.56368961 .00011530 00000+0 43021-3 0 9998 2 46495 97.8835 32.9107 0011714 48.2805 311.9433 15.27522863295408 IXPE 1 49954U 21121A 26037.66670139 .00019387 00000+0 11378-2 0 9993 2 49954 0.2281 223.7084 0007006 267.5357 124.1663 15.08782831 5797